Regional Weather Roundup
Issued by NWS New Orleans/Baton Rouge, LA

Home | Current Version | Previous Version | Text Only | Print | Product List | Glossary On
Versions: 1 2 3 4 5 6 7 8 9 10 11 12 13 14 15 16 17 18 19 20 21 22 23 24 25 26 27
000
ASUS44 KLIX 252313
RWRLIX
NEW ORLEANS REGIONAL WEATHER ROUNDUP
NATIONAL WEATHER SERVICE NEW ORLEANS LA
600 PM CDT TUE JUL 25 2017

NOTE: "FAIR" INDICATES FEW OR NO CLOUDS BELOW 12,000 FEET WITH NO
      SIGNIFICANT WEATHER AND/OR OBSTRUCTIONS TO VISIBILITY.
      SKY/WX - SKY CONDITION AND SIGNIFICANT WEATHER.
      TMP - AIR TEMPERATURE.     DP    - DEWPOINT TEMPERATURE.
      RH  - RELATIVE HUMIDITY.   PRES  - PRESSURE.
      HI  - HEAT INDEX.          WCI   - WIND CHILL INDEX.

*  THESE STATIONS ARE NOT NWS OR FAA STATIONS AND ARE NOT UNDER
   NWS QUALITY CONTROL.

LAZ038-040-048-061>063-065>067-069-260000-
SOUTHEAST LOUISIANA

CITY           SKY/WX    TMP DP  RH WIND       PRES   REMARKS
N.O. INTL ARPT PTSUNNY   89  73  59 N8        30.09R HX  97
N.O. LAKEFRONT MOSUNNY   86  76  71 N6        30.09S HX  96
N.O. DOWNTOWN*   N/A     90  73  57 NE7         N/A  HX  98
RESERVE*         N/A     89  75  62 NE5       30.09S HX  99
SLIDELL        CLOUDY    86  72  62 N3        30.09S
BATON ROUGE    CLOUDY    88  72  58 NW3       30.09S
BOOTHVILLE     SUNNY     86  75  69 NE5       30.09F HX  95
BELLE CHASSE   NOT AVBL
BOGALUSA*        N/A     85  71  63 NE5       30.11R
GALLIANO*      PTCLDY    89  72  56 S6        30.08S HX  96
NEW ROADS*       N/A     88  73  60 CALM      30.10S HX  96
GONZALES*        N/A     88  73  61 N5        30.08S HX  96
HAMMOND*       PTSUNNY   88  72  58 W5        30.09S
HOUMA*         NOT AVBL
PORT FOURCHON* CLEAR     88  70  55 SW7       30.08F

$$

MSZ070-080>082-260000-
SOUTHERN MISSISSIPPI

CITY           SKY/WX    TMP DP  RH WIND       PRES   REMARKS
MCCOMB         PTSUNNY   85  75  72 W7        30.11R
GULFPORT       MOSUNNY   83  74  74 W5        30.08S
BILOXI         MOSUNNY   81  73  75 NW5       30.09S
PASCAGOULA     MOSUNNY   81  74  79 VRB3      30.09S
STENNIS ARPT*  MOSUNNY   84  75  74 NW6       30.09S

$$

COASTAL OBSERVATIONS
LAKE AND NEARSHORE STATIONS

STATION/POSITION TIME  TEMP    WIND        PRES    WAVE
                       AIR SEA DIR/SP/G            HT/PER
                 (UTC) (F)     (DEG/KT/KT) (MB)    (FT/S)
PASCAGOULA       2248   82     330/  6/  9 1018.6
WAVELAND YACHT   2248   83 87   10/  6/  7 1019.2
GRAND ISLE       2248   88 85  210/  5/  8 1018.9
SOUTHWEST PASS   2248   88     240/  3/  5   N/A
NEW CANAL        2248   83 87   40/  6/  8 1019.0
SHELL BEACH      2248   85 90   10/  7/ 10 1019.1

OFFSHORE STATIONS

STATION/POSITION TIME  TEMP    WIND        PRES    WAVE
                       AIR SEA DIR/SP/G            HT/PER
                 (UTC) (F)     (DEG/KT/KT) (MB)    (FT/S)
64 S DAUPHIN ISL 2250   84 87  340/ 10/ 12 1019.1    2/ 4

$$





USA.gov is the U.S. government's official web portal to all federal, state and local government web resources and services.